Time,TemperatureF,DewpointF,PressureIn,WindDirection,WindDirectionDegrees,WindSpeedMPH,WindSpeedGustMPH,Humidity,HourlyPrecipIn,Conditions,Clouds,dailyrainin,SolarRadiationWatts/m^2,SoftwareType,DateUTC
2013-10-09 00:14:00,48.0,44.0,-100.00,NNW,346,0.0,3.0,86,0.00,,,0.00,0.000000,,2013-10-09 04:14:00,
2013-10-09 00:24:00,48.0,44.0,-100.00,NNW,346,0.0,3.0,86,0.00,,,0.00,0.000000,,2013-10-09 04:24:00,
2013-10-09 00:34:00,48.0,44.0,-100.00,NNW,346,0.0,3.0,86,0.00,,,0.00,0.000000,,2013-10-09 04:34:00,
2013-10-09 00:44:00,48.0,44.0,-100.00,NNW,346,0.0,3.0,86,0.00,,,0.00,0.000000,,2013-10-09 04:44:00,
2013-10-09 01:13:00,47.0,47.0,-100.00,NNW,346,0.0,2.0,99,0.00,,,0.00,0.000000,,2013-10-09 05:13:00,
2013-10-09 01:22:00,47.0,47.0,-100.00,NNW,346,0.0,2.0,99,0.00,,,0.00,0.000000,,2013-10-09 05:22:00,
2013-10-09 01:34:00,47.0,47.0,-100.00,NNW,346,0.0,2.0,99,0.00,,,0.00,0.000000,,2013-10-09 05:34:00,
2013-10-09 01:42:00,47.0,47.0,-100.00,NNW,346,0.0,2.0,99,0.00,,,0.00,0.000000,,2013-10-09 05:42:00,
2013-10-09 02:12:00,46.0,46.0,-100.00,NNW,346,0.0,2.0,99,0.00,,,0.00,0.000000,,2013-10-09 06:12:00,
2013-10-09 02:22:00,46.0,46.0,-100.00,NNW,346,0.0,2.0,99,0.00,,,0.00,0.000000,,2013-10-09 06:22:00,
2013-10-09 02:33:00,46.0,46.0,-100.00,NNW,346,0.0,2.0,99,0.00,,,0.00,0.000000,,2013-10-09 06:33:00,
2013-10-09 02:42:00,46.0,46.0,-100.00,NNW,346,0.0,2.0,99,0.00,,,0.00,0.000000,,2013-10-09 06:42:00,
2013-10-09 03:12:00,50.0,48.0,-100.00,ESE,110,0.0,2.0,92,0.00,,,0.00,0.000000,,2013-10-09 07:12:00,
2013-10-09 03:22:00,50.0,48.0,-100.00,ESE,110,0.0,2.0,92,0.00,,,0.00,0.000000,,2013-10-09 07:22:00,
2013-10-09 03:32:00,50.0,48.0,-100.00,ESE,110,0.0,2.0,92,0.00,,,0.00,0.000000,,2013-10-09 07:32:00,
2013-10-09 03:42:00,50.0,48.0,-100.00,ESE,110,0.0,2.0,92,0.00,,,0.00,0.000000,,2013-10-09 07:42:00,
2013-10-09 04:12:00,44.0,44.0,-100.00,NW,320,0.0,2.0,99,0.00,,,0.00,0.000000,,2013-10-09 08:12:00,
2013-10-09 04:23:00,44.0,44.0,-100.00,NW,320,0.0,2.0,99,0.00,,,0.00,0.000000,,2013-10-09 08:23:00,
2013-10-09 04:32:00,44.0,44.0,-100.00,NW,320,0.0,2.0,99,0.00,,,0.00,0.000000,,2013-10-09 08:32:00,
2013-10-09 04:42:00,44.0,44.0,-100.00,NW,320,0.0,2.0,99,0.00,,,0.00,0.000000,,2013-10-09 08:42:00,
2013-10-09 05:11:00,50.0,45.0,-100.00,NE,44,2.0,6.0,83,0.00,,,0.00,0.000000,,2013-10-09 09:11:00,
2013-10-09 05:22:00,50.0,45.0,-100.00,NE,44,2.0,6.0,83,0.00,,,0.00,0.000000,,2013-10-09 09:22:00,
2013-10-09 05:33:00,50.0,45.0,-100.00,NE,44,2.0,6.0,83,0.00,,,0.00,0.000000,,2013-10-09 09:33:00,
2013-10-09 05:43:00,50.0,45.0,-100.00,NE,44,2.0,6.0,83,0.00,,,0.00,0.000000,,2013-10-09 09:43:00,
2013-10-09 06:13:00,50.0,48.0,-100.00,NW,318,1.0,7.0,93,0.00,,,0.00,0.000000,,2013-10-09 10:13:00,
2013-10-09 06:23:00,50.0,48.0,-100.00,NW,318,1.0,7.0,93,0.00,,,0.00,0.000000,,2013-10-09 10:23:00,
2013-10-09 06:33:00,50.0,48.0,-100.00,NW,318,1.0,7.0,93,0.00,,,0.00,0.000000,,2013-10-09 10:33:00,
2013-10-09 06:43:00,50.0,48.0,-100.00,NW,318,1.0,7.0,93,0.00,,,0.00,0.000000,,2013-10-09 10:43:00,
2013-10-09 07:12:00,45.0,43.0,-100.00,North,357,1.0,3.0,92,0.00,,,0.00,0.000000,,2013-10-09 11:12:00,
2013-10-09 07:22:00,45.0,43.0,-100.00,North,357,1.0,3.0,92,0.00,,,0.00,0.000000,,2013-10-09 11:22:00,
2013-10-09 07:33:00,45.0,43.0,-100.00,North,357,1.0,3.0,92,0.00,,,0.00,0.000000,,2013-10-09 11:33:00,
2013-10-09 07:42:00,45.0,43.0,-100.00,North,357,1.0,3.0,92,0.00,,,0.00,0.000000,,2013-10-09 11:42:00,
2013-10-09 08:12:00,50.0,43.0,-100.00,North,0,1.0,6.0,78,0.00,,,0.00,0.000000,,2013-10-09 12:12:00,
2013-10-09 08:22:00,50.0,43.0,-100.00,North,0,1.0,6.0,78,0.00,,,0.00,0.000000,,2013-10-09 12:22:00,
2013-10-09 08:32:00,50.0,43.0,-100.00,North,0,1.0,6.0,78,0.00,,,0.00,0.000000,,2013-10-09 12:32:00,
2013-10-09 08:42:00,50.0,43.0,-100.00,North,0,1.0,6.0,78,0.00,,,0.00,0.000000,,2013-10-09 12:42:00,
2013-10-09 09:12:00,51.0,43.0,-100.00,NNW,330,2.0,9.0,74,0.00,,,0.00,9.000000,,2013-10-09 13:12:00,
2013-10-09 09:22:00,51.0,43.0,-100.00,NNW,330,2.0,9.0,74,0.00,,,0.00,9.000000,,2013-10-09 13:22:00,
2013-10-09 09:33:00,51.0,43.0,-100.00,NNW,330,2.0,9.0,74,0.00,,,0.00,9.000000,,2013-10-09 13:33:00,
2013-10-09 09:42:00,51.0,43.0,-100.00,NNW,330,2.0,9.0,74,0.00,,,0.00,9.000000,,2013-10-09 13:42:00,
2013-10-09 10:11:00,56.0,44.0,-100.00,SSW,202,3.0,11.0,65,0.00,,,0.00,79.000000,,2013-10-09 14:11:00,
2013-10-09 10:22:00,56.0,44.0,-100.00,SSW,202,3.0,11.0,65,0.00,,,0.00,79.000000,,2013-10-09 14:22:00,
2013-10-09 10:32:00,56.0,44.0,-100.00,SSW,202,3.0,11.0,65,0.00,,,0.00,79.000000,,2013-10-09 14:32:00,
2013-10-09 10:42:00,56.0,44.0,-100.00,SSW,202,3.0,11.0,65,0.00,,,0.00,79.000000,,2013-10-09 14:42:00,
2013-10-09 11:12:00,60.0,46.0,-100.00,SE,145,3.0,21.0,60,0.00,,,0.00,449.000000,,2013-10-09 15:12:00,
2013-10-09 11:22:00,60.0,46.0,-100.00,SE,145,3.0,21.0,60,0.00,,,0.00,449.000000,,2013-10-09 15:22:00,
2013-10-09 11:33:00,60.0,46.0,-100.00,SE,145,3.0,21.0,60,0.00,,,0.00,449.000000,,2013-10-09 15:33:00,
2013-10-09 11:43:00,60.0,46.0,-100.00,SE,145,3.0,21.0,60,0.00,,,0.00,449.000000,,2013-10-09 15:43:00,
2013-10-09 12:13:00,66.0,49.0,-100.00,NE,35,7.0,17.0,54,0.00,,,0.00,586.000000,,2013-10-09 16:13:00,
2013-10-09 12:24:00,66.0,49.0,-100.00,NE,35,7.0,17.0,54,0.00,,,0.00,586.000000,,2013-10-09 16:24:00,
2013-10-09 12:33:00,66.0,49.0,-100.00,NE,35,7.0,17.0,54,0.00,,,0.00,586.000000,,2013-10-09 16:33:00,
2013-10-09 12:42:00,66.0,49.0,-100.00,NE,35,7.0,17.0,54,0.00,,,0.00,586.000000,,2013-10-09 16:42:00,
2013-10-09 13:12:00,66.0,49.0,-100.00,NNW,334,4.0,19.0,55,0.00,,,0.00,731.000000,,2013-10-09 17:12:00,
2013-10-09 13:22:00,66.0,49.0,-100.00,NNW,334,4.0,19.0,55,0.00,,,0.00,731.000000,,2013-10-09 17:22:00,
2013-10-09 13:33:00,66.0,49.0,-100.00,NNW,334,4.0,19.0,55,0.00,,,0.00,731.000000,,2013-10-09 17:33:00,
2013-10-09 13:42:00,66.0,49.0,-100.00,NNW,334,4.0,19.0,55,0.00,,,0.00,731.000000,,2013-10-09 17:42:00,
2013-10-09 14:12:00,68.0,52.0,-100.00,ENE,76,4.0,18.0,56,0.00,,,0.00,831.000000,,2013-10-09 18:12:00,
2013-10-09 14:22:00,68.0,52.0,-100.00,ENE,76,4.0,18.0,56,0.00,,,0.00,831.000000,,2013-10-09 18:22:00,
2013-10-09 14:32:00,68.0,52.0,-100.00,ENE,76,4.0,18.0,56,0.00,,,0.00,831.000000,,2013-10-09 18:32:00,
2013-10-09 14:42:00,68.0,52.0,-100.00,ENE,76,4.0,18.0,56,0.00,,,0.00,831.000000,,2013-10-09 18:42:00,
2013-10-09 15:12:00,70.0,50.0,-100.00,WSW,256,4.0,12.0,49,0.00,,,0.00,933.000000,,2013-10-09 19:12:00,
2013-10-09 15:22:00,70.0,50.0,-100.00,WSW,256,4.0,12.0,49,0.00,,,0.00,933.000000,,2013-10-09 19:22:00,
2013-10-09 15:32:00,70.0,50.0,-100.00,WSW,256,4.0,12.0,49,0.00,,,0.00,933.000000,,2013-10-09 19:32:00,
2013-10-09 15:42:00,70.0,50.0,-100.00,WSW,256,4.0,12.0,49,0.00,,,0.00,933.000000,,2013-10-09 19:42:00,
2013-10-09 16:11:00,71.0,48.0,-100.00,ENE,65,4.0,14.0,44,0.00,,,0.00,799.000000,,2013-10-09 20:11:00,
2013-10-09 16:22:00,71.0,48.0,-100.00,ENE,65,4.0,14.0,44,0.00,,,0.00,799.000000,,2013-10-09 20:22:00,
2013-10-09 16:32:00,71.0,48.0,-100.00,ENE,65,4.0,14.0,44,0.00,,,0.00,799.000000,,2013-10-09 20:32:00,
2013-10-09 16:43:00,71.0,48.0,-100.00,ENE,65,4.0,14.0,44,0.00,,,0.00,799.000000,,2013-10-09 20:43:00,
2013-10-09 17:12:00,68.0,48.0,-100.00,ENE,76,4.0,14.0,48,0.00,,,0.00,655.000000,,2013-10-09 21:12:00,
2013-10-09 17:23:00,68.0,48.0,-100.00,ENE,76,4.0,14.0,48,0.00,,,0.00,655.000000,,2013-10-09 21:23:00,
2013-10-09 17:34:00,68.0,48.0,-100.00,ENE,76,4.0,14.0,48,0.00,,,0.00,655.000000,,2013-10-09 21:34:00,
2013-10-09 17:44:00,68.0,48.0,-100.00,ENE,76,4.0,14.0,48,0.00,,,0.00,655.000000,,2013-10-09 21:44:00,
2013-10-09 18:13:00,66.0,45.0,-100.00,NE,48,4.0,13.0,47,0.00,,,0.00,346.000000,,2013-10-09 22:13:00,
2013-10-09 18:24:00,66.0,45.0,-100.00,NE,48,4.0,13.0,47,0.00,,,0.00,346.000000,,2013-10-09 22:24:00,
2013-10-09 18:34:00,66.0,45.0,-100.00,NE,48,4.0,13.0,47,0.00,,,0.00,346.000000,,2013-10-09 22:34:00,
2013-10-09 18:43:00,66.0,45.0,-100.00,NE,48,4.0,13.0,47,0.00,,,0.00,346.000000,,2013-10-09 22:43:00,
2013-10-09 19:12:00,62.0,43.0,-100.00,ENE,72,2.0,40.0,50,0.00,,,0.00,27.000000,,2013-10-09 23:12:00,
2013-10-09 19:22:00,62.0,43.0,-100.00,ENE,72,2.0,40.0,50,0.00,,,0.00,27.000000,,2013-10-09 23:22:00,
2013-10-09 19:34:00,62.0,43.0,-100.00,ENE,72,2.0,40.0,50,0.00,,,0.00,27.000000,,2013-10-09 23:34:00,
2013-10-09 19:43:00,62.0,43.0,-100.00,ENE,72,2.0,40.0,50,0.00,,,0.00,27.000000,,2013-10-09 23:43:00,
2013-10-09 20:12:00,59.0,46.0,-100.00,ENE,73,1.0,9.0,61,0.00,,,0.00,11.000000,,2013-10-10 00:12:00,
2013-10-09 20:22:00,59.0,46.0,-100.00,ENE,73,1.0,9.0,61,0.00,,,0.00,11.000000,,2013-10-10 00:22:00,
2013-10-09 20:32:00,59.0,46.0,-100.00,ENE,73,1.0,9.0,61,0.00,,,0.00,11.000000,,2013-10-10 00:32:00,
2013-10-09 20:42:00,59.0,46.0,-100.00,ENE,73,1.0,9.0,61,0.00,,,0.00,11.000000,,2013-10-10 00:42:00,
2013-10-09 21:11:00,57.0,46.0,-100.00,ENE,64,0.0,4.0,67,0.00,,,0.00,0.000000,,2013-10-10 01:11:00,
2013-10-09 21:22:00,57.0,46.0,-100.00,ENE,64,0.0,4.0,67,0.00,,,0.00,0.000000,,2013-10-10 01:22:00,
2013-10-09 21:32:00,57.0,46.0,-100.00,ENE,64,0.0,4.0,67,0.00,,,0.00,0.000000,,2013-10-10 01:32:00,
2013-10-09 21:42:00,57.0,46.0,-100.00,ENE,64,0.0,4.0,67,0.00,,,0.00,0.000000,,2013-10-10 01:42:00,
2013-10-09 22:12:00,54.0,46.0,-100.00,SW,235,1.0,7.0,75,0.00,,,0.00,0.000000,,2013-10-10 02:12:00,
2013-10-09 22:22:00,54.0,46.0,-100.00,SW,235,1.0,7.0,75,0.00,,,0.00,0.000000,,2013-10-10 02:22:00,
2013-10-09 22:33:00,54.0,46.0,-100.00,SW,235,1.0,7.0,75,0.00,,,0.00,0.000000,,2013-10-10 02:33:00,
2013-10-09 22:42:00,54.0,46.0,-100.00,SW,235,1.0,7.0,75,0.00,,,0.00,0.000000,,2013-10-10 02:42:00,
2013-10-09 23:12:00,53.0,47.0,-100.00,NE,42,0.0,6.0,79,0.00,,,0.00,0.000000,,2013-10-10 03:12:00,
2013-10-09 23:22:00,53.0,47.0,-100.00,NE,42,0.0,6.0,79,0.00,,,0.00,0.000000,,2013-10-10 03:22:00,
2013-10-09 23:34:00,53.0,47.0,-100.00,NE,42,0.0,6.0,79,0.00,,,0.00,0.000000,,2013-10-10 03:34:00,
2013-10-09 23:44:00,53.0,47.0,-100.00,NE,42,0.0,6.0,79,0.00,,,0.00,0.000000,,2013-10-10 03:44:00,
2013-10-09 23:49:00,54.0,48.0,-100.00,ESE,102,0.0,4.0,81,0.00,,,0.00,0.000000,,2013-10-10 03:49:00,